Location: East Irvine
(33.6759°N, 117.7598°W)
Time: 00:33:32
(UTC+00:00)

SL-4 R/B - Pass Details

Date: 15 November 2025
Orbit: 386 x 526 km, 51.6° (Epoch: 07 December)

Event Time Altitude Azimuth Distance (km) Brightness Sun altitude
Rises 01:15:06 0° 319° (NW) 2,385 5.6 -6.1°
Reaches altitude 10° 01:17:13 10° 325° (NW) 1,541 4.5 -6.5°
Maximum altitude 01:20:34 46° 40° (NE) 611 1.9 -7.1°
Drops below altitude 10° 01:24:06 10° 116° (ESE) 1,617 4.0 -7.8°
Enters shadow 01:26:07 - 121° (ESE) 2,417 4.9 -8.2°
